{"data":{"norad_id":62842,"intl_designator":"2025-019P","name":"STARLINK-32755","alt_names":[],"object_type":"PAYLOAD","status":"ACTIVE","operator":null,"country":"US","launch_date":"2025-01-27","launch_site_code":"AFETR","launch_vehicle":null,"mission":null,"orbit_class":"UNKNOWN","rcs_meters":null,"size_class":null,"mass_kg":null,"dimensions":null,"purposes":["comms"],"wikipedia_slug":null,"has_3d_model":false,"image_url":null,"decayed_at":null,"tle_current":{"epoch":"2026-05-24T22:31:50.750976Z","epoch_age_seconds":87227,"freshness":"FRESH","line1":"1 62842U 25019P   26144.93878184  .00014672  00000+0  54145-3 0  9995","line2":"2 62842  43.0062  11.3223 0001708 292.9858  67.0813 15.27591890 73990","mean_motion":15.2759189,"eccentricity":0.0001708,"inclination_deg":43.0062,"raan_deg":11.3223,"arg_perigee_deg":292.9858,"mean_anomaly_deg":67.0813,"bstar":0.00054145,"rev_number":7399,"period_min":94.266014989121,"perigee_km":481.84160882892,"apogee_km":484.18537783744,"semimajor_km":6861.1504933332,"source":"CELESTRAK","updated_at":"2026-05-25T13:38:19.780806Z"}}}